Pittsfield, MA

2:37 AM EST on February 22, 2018 (GMT -0500)
Pittsfield Municipal

Weather History for KPSF - April, 2014

Change the Weather History Date:

Friday, April 18, 2014

  Actual Average Record
Temperature  
Mean Temperature 36 °F 45 °F  
Max Temperature 47 °F 56 °F 79 °F (1964)
Min Temperature 25 °F 35 °F 20 °F (1962)
Degree Days  
Heating Degree Days 29 20  
Month to date heating degree days 394 421  
Since 1 July heating degree days 7177 6828  
Cooling Degree Days 0 0  
Month to date cooling degree days 1 0  
Year to date cooling degree days 1 0  
Moisture  
Dew Point 22 °F    
Average Humidity 59    
Maximum Humidity 81    
Minimum Humidity 37    
Precipitation  
Precipitation 0.00 in 0.11 in 0.67 in (1960)
Month to date precipitation 1.73 2.63  
Year to date precipitation 11.24 11.60  
Sea Level Pressure  
Sea Level Pressure 30.40 in    
Wind  
Wind Speed 4 mph (SE)    
Max Wind Speed 12 mph    
Max Gust Speed 16 mph    
Visibility 10 miles    
Events      
T = Trace of Precipitation, MM = Missing Value Source: NWS Daily Summary

Daily Weather History Graph

Daily Weather History Graph

Search for Another Location

Airport or City:

Trip Planner

Search our weather history database for the weather conditions in past years. The results will help you decide how hot, cold, wet, or windy it might be!

Date:

Astronomy

Apr. 18, 2014 Rise Set
Actual Time 6:07 AM EDT 7:38 PM EDT
Civil Twilight 5:37 AM EDT 8:07 PM EDT
Nautical Twilight 5:02 AM EDT 8:43 PM EDT
Astronomical Twilight 4:24 AM EDT 9:21 PM EDT
Moon 11:23 PM EDT (4/18) 8:24 AM EDT (4/18)
Length of Visible Light 14h 29m
Length of Day
13h 30m
Waning Gibbous, 87% of the Moon is Illuminated
Apr 18
Waning Gibbous
Apr 22
Last Quarter
Apr 29
New
May 6
First Quarter
May 14
Full

Hourly Weather History & Observations

Time (EDT) Temp. Windchill Dew Point Humidity Pressure Visibility Wind Dir Wind Speed Gust Speed Precip Events Conditions
12:54 AM 30.0 °F 25.2 °F 21.0 °F 69% 30.58 in 10.0 mi ENE 4.6 mph - N/A   Clear
1:54 AM 28.9 °F 25.2 °F 21.0 °F 72% 30.58 in 10.0 mi East 3.5 mph - N/A   Clear
2:54 AM 28.0 °F 24.2 °F 21.9 °F 78% 30.57 in 10.0 mi ENE 3.5 mph - N/A   Clear
3:54 AM 26.1 °F - 21.0 °F 81% 30.56 in 10.0 mi Calm Calm - N/A   Clear
4:54 AM 26.1 °F 20.5 °F 21.0 °F 81% 30.51 in 10.0 mi East 4.6 mph - N/A   Clear
5:54 AM 25.0 °F - 19.9 °F 81% 30.48 in 10.0 mi Calm Calm - N/A   Clear
6:54 AM 27.0 °F - 19.9 °F 75% 30.50 in 10.0 mi Calm Calm - N/A   Clear
7:54 AM 30.0 °F 25.2 °F 21.0 °F 69% 30.50 in 10.0 mi Variable 4.6 mph - N/A   Clear
8:54 AM 34.0 °F 27.2 °F 21.9 °F 61% 30.51 in 10.0 mi SE 8.1 mph - N/A   Clear
9:54 AM 37.0 °F 30.4 °F 23.0 °F 57% 30.49 in 10.0 mi SE 9.2 mph - N/A   Clear
10:54 AM 39.0 °F 36.8 °F 23.0 °F 53% 30.47 in 10.0 mi Variable 3.5 mph - N/A   Clear
11:54 AM 41.0 °F 35.8 °F 21.9 °F 47% 30.42 in 10.0 mi SSE 8.1 mph - N/A   Clear
12:54 PM 43.0 °F 38.8 °F 21.0 °F 42% 30.40 in 10.0 mi SSE 6.9 mph - N/A   Clear
1:54 PM 44.1 °F 39.5 °F 21.9 °F 42% 30.39 in 10.0 mi SSE 8.1 mph - N/A   Clear
2:54 PM 46.0 °F 41.4 °F 21.0 °F 37% 30.35 in 10.0 mi South 9.2 mph - N/A   Clear
3:54 PM 46.0 °F 41.9 °F 21.9 °F 39% 30.32 in 10.0 mi SE 8.1 mph - N/A   Clear
4:54 PM 46.0 °F 43.1 °F 21.9 °F 39% 30.29 in 10.0 mi SSE 5.8 mph - N/A   Clear
5:54 PM 46.0 °F 41.9 °F 21.9 °F 39% 30.27 in 10.0 mi SW 8.1 mph - N/A   Clear
6:54 PM 45.0 °F 42.6 °F 23.0 °F 42% 30.25 in 10.0 mi SSW 4.6 mph - N/A   Clear
7:54 PM 43.0 °F 40.3 °F 24.1 °F 47% 30.25 in 10.0 mi South 4.6 mph - N/A   Clear
8:54 PM 41.0 °F 39.0 °F 25.0 °F 53% 30.23 in 10.0 mi SSW 3.5 mph - N/A   Clear
9:54 PM 39.0 °F - 27.0 °F 62% 30.23 in 10.0 mi Calm Calm - N/A   Clear
10:54 PM 36.0 °F - 26.1 °F 67% 30.22 in 10.0 mi Calm Calm - N/A   Clear
11:54 PM 34.0 °F - 27.0 °F 75% 30.21 in 10.0 mi Calm Calm - N/A   Clear